Flag for Cyprus Weather past 2 weeks in Nicosia, Cyprus

Now
61 °F

Scattered clouds.


Feels Like: 61 °F
Forecast: 49 / 67 °F
Wind: 7 mph from Northwest

Location: Ercan

Current Time: Mar 29, 2015 at 7:16:18 PM

Latest Report: Mar 29, 2015 at 6:20 PM


Visibility: N/A

Pressure: 29.77 "Hg

Humidity: 68%

Dew point: 50 °F

Location of NicosiaLocation

Historic Weather in Nicosia — Graph

°F

Nicosia temperature yesterday

Maximum temperature yesterday: 64 °F (at 1:20 AM)
Minimum temperature yesterday: 52 °F (at 11:20 PM)
Average temperature yesterday: 60 °F

Past Weeks' High & Low Weather Summary

 TemperatureHumidityPressure
High72 °F (Mar 26, 12:20 PM)100% (Mar 29, 1:00 AM)30.15 "Hg (Mar 29, 1:00 AM)
Low37 °F (Mar 23, 4:50 AM)30% (Mar 16, 1:20 PM)29.71 "Hg (Mar 29, 3:20 PM)
Average56 °F68%29.99 "Hg
* Reported Mar 14 4:20 PM — Mar 29 5:50 PM, Nicosia, Weather by CustomWeather, © 2015

Note: Actual official high and low records may vary slightly from our data, if they occured in-between our weather recording intervals... More about our weather records

Advertising

Nicosia weather history for previous 24 hours

 ConditionsComfort  
Time TempWeatherWind HumidityBarometerVisibility
5:50 PM
Sun, Mar 29
61 °FScattered clouds.16 mph68%29.77 "HgN/A
5:20 PM63 °FScattered clouds.22 mph68%29.77 "HgN/A
4:50 PM63 °FScattered clouds.28 mph68%29.77 "HgN/A
4:20 PM64 °FPartly sunny.24 mph68%29.74 "HgN/A
3:50 PM72 °FScattered clouds.17 mph53%29.74 "HgN/A
3:20 PM72 °FScattered clouds.13 mph53%29.71 "HgN/A
2:50 PM70 °FScattered clouds.9 mph53%29.74 "HgN/A
2:20 PM72 °FScattered clouds.10 mph47%29.74 "HgN/A
1:50 PM72 °FScattered clouds.8 mph47%29.77 "HgN/A
1:20 PM70 °FScattered clouds.10 mph53%29.77 "HgN/A
12:50 PM72 °FScattered clouds.10 mph53%29.77 "HgN/A
12:20 PM70 °FScattered clouds.8 mph57%29.80 "HgN/A
11:50 AM68 °FScattered clouds.8 mph64%29.80 "HgN/A
11:20 AM66 °FScattered clouds.7 mph73%29.83 "HgN/A
10:50 AM64 °FScattered clouds.9 mph78%29.83 "HgN/A
10:20 AM64 °FScattered clouds.7 mph83%29.83 "HgN/A
9:50 AM63 °FScattered clouds.6 mph83%29.83 "HgN/A
9:20 AM61 °FPassing clouds.5 mph94%29.83 "HgN/A
8:50 AM57 °FPassing clouds.No wind94%29.83 "Hg4 mi
8:20 AM55 °FScattered clouds.3 mph100%29.83 "Hg5 mi
7:50 AM52 °FFog.3 mph100%29.83 "Hg3 mi
7:20 AM50 °FFog.7 mph88%29.83 "Hg3 mi
6:50 AM46 °FFog.7 mph100%29.83 "Hg3 mi
6:20 AM46 °FFog.5 mph100%29.83 "Hg3 mi
5:50 AM46 °FFog.7 mph93%29.83 "Hg3 mi
5:20 AM46 °FFog.6 mph100%29.83 "Hg1 mi
4:50 AM46 °FFog.5 mph100%29.83 "Hg0 mi
4:20 AM48 °FFog.7 mph100%29.83 "Hg1 mi
2:50 AM46 °FFog.5 mph100%29.83 "Hg1 mi
2:20 AM48 °FFog.6 mph100%29.83 "Hg1 mi
1:50 AM48 °FFog.6 mph100%29.86 "Hg1 mi
1:20 AM48 °FFog.7 mph100%29.86 "Hg0 mi
1:00 AM48 °FFog.6 mph100%29.83 "Hg1 mi
12:20 AM52 °FFog.6 mph94%29.86 "Hg3 mi
11:50 PM
Sat, Mar 28
52 °FFog.5 mph94%29.86 "Hg3 mi
11:20 PM52 °FPassing clouds.5 mph94%29.86 "Hg4 mi
10:50 PM54 °FPassing clouds.No wind94%29.86 "Hg4 mi
10:20 PM54 °FPassing clouds.3 mph94%29.86 "Hg4 mi
9:50 PM55 °FPassing clouds.No wind94%29.86 "HgN/A
9:20 PM55 °FPassing clouds.No wind94%29.86 "HgN/A
8:50 PM57 °FPassing clouds.6 mph88%29.86 "HgN/A
8:20 PM57 °FPassing clouds.7 mph94%29.86 "HgN/A
7:50 PM57 °FPassing clouds.7 mph88%29.86 "HgN/A
7:20 PM57 °FPassing clouds.7 mph88%29.86 "HgN/A
Weather by CustomWeather, © 2015

See weather overviewHow to use our weather pages